"Pseudo-MPEC" for TA29DCF = 2011-037ND = Spektr-R booster

Created 2014 Dec 30 1:09:51 UT using Find_Orb

You can get customized ephemerides for this object from the Minor Planet Center's Distant Artificial Satellites Observation page.

There is an updated page with more recent observations and an explanation of designation confusion available. As of early 2017, and confirmed by subsequent observations in early 2018 (and again in May 2019 and since then through 2020), it looks as if this object will re-enter the atmosphere on 2021 August 9, at about 16:30 UTC, over the Indian Ocean (latitude S 49, longitude E 87).

I would normally not make such a statement years in advance, let alone with this degree of specificity. We've had at least one instance (2010-050B, the Chang'e 2 booster) where an impact seemed quite likely, and subsequent observations showed a near-miss. However, I get the same impact circumstances for this object using only recent observations, or only 2018 data, or even with 2017 data. The object has been quite predictable thus far. A lot of space junk moves erratically as leftover fuel vents or because it's oddly shaped and subject to unusual non-gravs from radiation pressure; this object hasn't shown much of that tendency. Of course, more data between now and 2021 August will be welcome, but I am unusually confident that the actual re-entry will occur at the specified place and time.

Click here for a plot of the inclination and perigee distance vs. time over the remaining lifespan of this object. It'll be an interesting re-entry, coming in at a steep angle resembling that of WT1190F in November 2015. Usually, re-entering space junk dips into the atmosphere over a series of orbits, resulting in a more circular orbit that spirals in. You know it'll come in, but not exactly where and when.

This object, on the other hand, will come in at a relatively steep angle. We should have a very good idea as to when and where it will re-enter. It'll do so at something close to escape speed (about 11 km/s) instead of low-earth-orbit speed (about 8 km/s.). So it may be interesting enough for somebody to go take a look at it (unfortunately, it's nowhere near any land masses).

You can also get TLEs (Two-Line Elements) for this object (and many other objects described on these pages.)

Mike McCants points out that this object is almost certainly the booster for the Spektr-R radio-astronomy telescope. If you compute orbits for epoch 2011 July 18 (launch date for Spektr-R) for both objects, the match is almost exact, except that TA29DCF has a slightly higher apogee.

Orbital elements:  TA29DCF = 2011-037ND
   Perigee 2011 Jul 18.237971 +/- 0.00161 TT =  5:42:40 (JD 2455760.737971)
Epoch 2011 Jul 18.0 TT; AMR 0.0097301 +/- 0.000236 m^2/kg     Find_Orb
M 349.79674 +/- 0.06
n  42.87602464 +/- 0.000735         Peri.  301.97448 +/- 0.015
a174499.356 +/- 2                   Node   342.24845 +/- 0.019
e   0.9600582 +/- 2.72e-6           Incl.   51.52172 +/- 0.010
P   8.40d                  H 29.1   G  0.15   U  7.9
q 6969.80533 +/- 0.398    Q 342028.908 +/- 4.37
71 of 74 observations 2012 Jan. 13-Apr. 15; mean residual 0".756.

Orbital elements:  2011-037A = Spektr-R = NORAD 37755
   Perigee 2011 Jul 18.244952 +/- 0.000121 TT =  5:52:43 (JD 2455760.744952)
Epoch 2011 Jul 18.0 TT; AMR 0.041752 +/- 0.000320 m^2/kg      Find_Orb
M 349.42579 +/- 0.0052
n  43.16855563 +/- 6.37e-5          Peri.  301.89731 +/- 0.0011
a173710.135 +/- 0.171               Node   342.23853 +/- 0.0014
e   0.9600235 +/- 3.07e-6           Incl.   51.53231 +/- 0.0007
P   8.34d                  H 26.0   G  0.15   U  6.3
q 6944.31692 +/- 0.535    Q 340475.954 +/- 0.513
179 of 8001 observations 2011 Oct. 15-Dec. 8; mean residual 1".680.

Since then, the orbits of both objects have evolved quite a bit, mostly due to lunar perturbations raising the perigee distance. In the case of Spektr-R, this has been carefully maintained; but TA29DCF has changed a lot, and should lead eventually to the impact in August 2021 mentioned above.

